Panama City, FL

6:52 PM CDT on March 27, 2017 (GMT -0500)
Northwest Florida Beaches International

Weather History for KECP - April, 2014

Change the Weather History Date:

Friday, April 18, 2014

  Actual Average Record
Temperature  
Mean Temperature 60 °F -  
Max Temperature 62 °F - 82 °F (2013)
Min Temperature 57 °F - 46 °F (2011)
Degree Days  
Heating Degree Days 5    
Cooling Degree Days 0    
Growing Degree Days 10 (Base 50)    
Moisture  
Dew Point 58 °F    
Average Humidity 89    
Maximum Humidity 97    
Minimum Humidity 80    
Precipitation  
Precipitation 1.79 in - 1.79 in (2014)
Month to date precipitation 6.32  
Year to date precipitation 25.03  
Sea Level Pressure  
Sea Level Pressure 30.06 in    
Wind  
Wind Speed 10 mph (NNE)    
Max Wind Speed 28 mph    
Max Gust Speed 38 mph    
Visibility 5 miles    
Events Rain , Thunderstorm    
T = Trace of Precipitation, MM = Missing Value Source: NWS Daily Summary

Daily Weather History Graph

Daily Weather History Graph

Search for Another Location

Airport or City:

Trip Planner

Search our weather history database for the weather conditions in past years. The results will help you decide how hot, cold, wet, or windy it might be!

Date:

Astronomy

Apr. 18, 2014 Rise Set
Actual Time 7:12 AM EDT 8:12 PM EDT
Civil Twilight 6:47 AM EDT 8:37 PM EDT
Nautical Twilight 6:18 AM EDT 9:06 PM EDT
Astronomical Twilight 5:48 AM EDT 9:37 PM EDT
Moon 11:47 PM EDT (4/18) 9:43 AM EDT (4/18)
Length of Visible Light 13h 49m
Length of Day
13h 00m
Waning Gibbous, 87% of the Moon is Illuminated
Apr 18
Waning Gibbous
Apr 22
Last Quarter
Apr 29
New
May 6
First Quarter
May 14
Full

Hourly Weather History & Observations

Time (EDT) Temp. Dew Point Humidity Pressure Visibility Wind Dir Wind Speed Gust Speed Precip Events Conditions
12:14 AM 62.6 °F 59.0 °F 88% 30.16 in 2.5 mi NE 10.4 mph - 0.17 in Rain , Thunderstorm Heavy Thunderstorms and Rain
12:21 AM 62.6 °F 59.0 °F 88% 30.17 in 2.5 mi NE 3.5 mph 16.1 mph 0.23 in Rain , Thunderstorm Heavy Rain
12:31 AM 62.6 °F 59.0 °F 88% 30.18 in 4.0 mi SE 3.5 mph - 0.27 in Rain , Thunderstorm Rain
12:37 AM 62.6 °F 59.0 °F 88% 30.19 in 2.5 mi SSE 4.6 mph - 0.33 in Rain , Thunderstorm Heavy Thunderstorms and Rain
12:53 AM 62.1 °F 59.0 °F 90% 30.22 in 1.8 mi NE 8.1 mph - 0.65 in Rain , Thunderstorm Heavy Rain
1:00 AM 62.6 °F 59.0 °F 88% 30.17 in 2.5 mi NNE 8.1 mph - 0.04 in Rain , Thunderstorm Heavy Rain
1:03 AM 62.6 °F 59.0 °F 88% 30.17 in 3.0 mi NNE 6.9 mph - 0.05 in Rain Heavy Rain
1:22 AM 62.6 °F 60.8 °F 94% 30.16 in 4.0 mi North 8.1 mph - 0.13 in Rain , Thunderstorm Heavy Rain
1:30 AM 62.6 °F 59.0 °F 88% 30.16 in 2.0 mi North 6.9 mph - 0.21 in Rain , Thunderstorm Heavy Rain
1:33 AM 62.6 °F 59.0 °F 88% 30.16 in 2.5 mi North 5.8 mph - 0.22 in Rain Heavy Rain
1:38 AM 62.6 °F 59.0 °F 88% 30.16 in 3.0 mi North 8.1 mph - 0.25 in Rain Heavy Rain
1:48 AM 62.6 °F 59.0 °F 88% 30.15 in 2.5 mi NNE 9.2 mph - 0.32 in Rain Heavy Rain
1:53 AM 62.1 °F 59.0 °F 90% 30.18 in 3.0 mi NNE 11.5 mph - 0.36 in Rain Rain
2:14 AM 62.6 °F 59.0 °F 88% 30.13 in 3.0 mi NNE 10.4 mph - 0.12 in Rain Heavy Rain
2:21 AM 62.6 °F 59.0 °F 88% 30.13 in 2.5 mi NNE 10.4 mph - 0.15 in Rain Rain
2:28 AM 62.6 °F 59.0 °F 88% 30.13 in 5.0 mi North 9.2 mph - 0.15 in Rain Light Rain
2:39 AM 62.6 °F 59.0 °F 88% 30.13 in 7.0 mi NNE 8.1 mph - 0.17 in Rain Rain
2:51 AM 62.6 °F 59.0 °F 88% 30.12 in 2.5 mi North 11.5 mph 16.1 mph 0.29 in Rain Heavy Rain
2:52 AM 62.1 °F 59.0 °F 90% 30.15 in 2.5 mi North 13.8 mph 17.3 mph 0.30 in Rain Heavy Rain
3:00 AM 60.8 °F 59.0 °F 94% 30.11 in 3.0 mi North 11.5 mph - 0.02 in Rain Rain
3:13 AM 60.8 °F 59.0 °F 94% 30.10 in 9.0 mi North 10.4 mph - 0.03 in Rain Light Rain
3:27 AM 60.8 °F 59.0 °F 94% 30.10 in 10.0 mi NNE 10.4 mph 19.6 mph 0.03 in Rain Light Rain
3:34 AM 60.8 °F 59.0 °F 94% 30.10 in 10.0 mi North 11.5 mph - 0.03 in Rain Light Rain
3:53 AM 61.0 °F 59.0 °F 93% 30.13 in 6.0 mi North 12.7 mph 18.4 mph 0.05 in Rain Rain
4:13 AM 60.8 °F 59.0 °F 94% 30.10 in 6.0 mi NNE 5.8 mph 18.4 mph 0.06 in Rain Rain
4:21 AM 60.8 °F 59.0 °F 94% 30.09 in 3.0 mi NNE 8.1 mph - 0.13 in Rain Heavy Rain
4:25 AM 60.8 °F 59.0 °F 94% 30.08 in 2.5 mi North 10.4 mph - 0.16 in Rain Heavy Rain
4:35 AM 60.8 °F 59.0 °F 94% 30.08 in 4.0 mi North 10.4 mph - 0.19 in Rain Rain
4:53 AM 61.0 °F 59.0 °F 93% 30.11 in 3.0 mi North 9.2 mph - 0.27 in Rain Heavy Rain
5:13 AM 60.8 °F 59.0 °F 94% 30.05 in 5.0 mi NNE 13.8 mph 19.6 mph 0.06 in Rain Rain
5:22 AM 60.8 °F 57.2 °F 88% 30.05 in 5.0 mi NNE 15.0 mph 23.0 mph 0.08 in Rain Rain
5:53 AM 61.0 °F 59.0 °F 93% 30.07 in 3.0 mi NNE 15.0 mph 19.6 mph 0.19 in Rain Heavy Rain
6:53 AM 61.0 °F 57.9 °F 90% 30.05 in 6.0 mi NNE 17.3 mph 28.8 mph 0.21 in Rain Light Rain
7:14 AM 60.8 °F 57.2 °F 88% 30.02 in 7.0 mi NNE 16.1 mph 23.0 mph 0.02 in Rain Rain
7:53 AM 61.0 °F 57.9 °F 90% 30.03 in 3.0 mi NE 19.6 mph 28.8 mph 0.07 in Rain Rain
8:38 AM 60.8 °F 57.2 °F 88% 30.01 in 2.0 mi NE 13.8 mph 24.2 mph 0.07 in Rain Rain
8:50 AM 60.8 °F 57.2 °F 88% 30.02 in 3.0 mi NE 11.5 mph - 0.10 in Rain Light Rain
8:53 AM 60.1 °F 57.9 °F 93% 30.05 in 3.0 mi NE 12.7 mph - 0.11 in Rain Rain
9:27 AM 60.8 °F 57.2 °F 88% 30.01 in 6.0 mi North - - 0.04 in Rain Light Rain
9:34 AM 60.8 °F 57.2 °F 88% 30.00 in 9.0 mi NE 16.1 mph - 0.04 in Rain Light Rain
9:53 AM 60.1 °F 57.9 °F 93% 30.04 in 7.0 mi NNE 12.7 mph - 0.05 in Rain Light Rain
10:10 AM 60.8 °F 57.2 °F 88% 30.00 in 6.0 mi NE 16.1 mph 21.9 mph 0.01 in Rain Light Rain
10:53 AM 61.0 °F 57.9 °F 90% 30.02 in 3.0 mi NE 12.7 mph 21.9 mph 0.04 in Rain Light Rain
11:23 AM 60.8 °F 57.2 °F 88% 29.99 in 10.0 mi NE 15.0 mph 23.0 mph 0.00 in   Overcast
11:37 AM 60.8 °F 57.2 °F 88% 29.99 in 7.0 mi ENE 8.1 mph - 0.01 in Rain Light Rain
11:53 AM 61.0 °F 57.9 °F 90% 30.03 in 10.0 mi NE 11.5 mph - 0.01 in   Overcast
12:53 PM 61.0 °F 59.0 °F 93% 30.00 in 5.0 mi NNE 16.1 mph 24.2 mph 0.01 in Rain Light Rain
1:37 PM 60.8 °F 59.0 °F 94% 29.96 in 1.8 mi North 11.5 mph - 0.03 in Rain Rain
1:53 PM 61.0 °F 59.0 °F 93% 29.99 in 1.2 mi North 11.5 mph 19.6 mph 0.08 in Rain Heavy Rain
2:31 PM 60.8 °F 57.2 °F 88% 29.96 in 2.0 mi North 13.8 mph 18.4 mph 0.11 in Rain Rain
2:38 PM 60.8 °F 57.2 °F 88% 29.96 in 1.8 mi North 11.5 mph - 0.13 in Rain Rain
2:53 PM 60.1 °F 57.0 °F 90% 29.99 in 1.5 mi NNW 12.7 mph - 0.17 in Rain Heavy Rain
3:53 PM 57.9 °F 55.9 °F 93% 30.00 in 1.5 mi NW 19.6 mph 25.3 mph 0.15 in Rain Rain
4:53 PM 57.9 °F 55.0 °F 90% 29.98 in 10.0 mi NNW 25.3 mph 32.2 mph 0.04 in   Overcast
5:53 PM 59.0 °F 54.0 °F 83% 29.94 in 4.0 mi North 17.3 mph 36.8 mph 0.01 in Rain Rain
6:53 PM 59.0 °F 54.0 °F 83% 29.95 in 10.0 mi North 13.8 mph 25.3 mph 0.03 in   Overcast
7:32 PM 57.2 °F 53.6 °F 88% 29.92 in 3.0 mi North 13.8 mph 23.0 mph 0.01 in Rain Rain
7:53 PM 57.2 °F 53.6 °F 88% 29.91 in 4.0 mi North 13.8 mph 23.0 mph N/A Rain Light Rain
8:53 PM 57.0 °F 53.1 °F 87% 29.98 in 10.0 mi North 15.0 mph 20.7 mph 0.01 in   Overcast
9:08 PM 57.2 °F 53.6 °F 88% 29.94 in 10.0 mi North 12.7 mph 18.4 mph N/A   Overcast
9:53 PM 57.0 °F 54.0 °F 89% 30.00 in 10.0 mi North 10.4 mph - N/A   Overcast
10:53 PM 57.2 °F 53.6 °F 88% 29.96 in 10.0 mi NNW 11.5 mph - N/A   Overcast
11:53 PM 57.0 °F 52.0 °F 83% 30.00 in 10.0 mi NNW 9.2 mph 18.4 mph N/A   Overcast